Alturas, CA

4:24 PM PST on January 19, 2017 (GMT -0800)
Alturas Municipal

Weather History for KAAT - October, 2012

Change the Weather History Date:

Friday, October 12, 2012

  Actual Average Record
Temperature  
Mean Temperature 48 °F 48 °F  
Max Temperature 67 °F 67 °F 88 °F (1991)
Min Temperature 29 °F 29 °F 15 °F (2002)
Degree Days  
Heating Degree Days 17 17  
Month to date heating degree days 141 182  
Since 1 July heating degree days 297 559  
Cooling Degree Days 0 0  
Month to date cooling degree days 0 0  
Year to date cooling degree days 224 156  
Moisture  
Dew Point 35 °F    
Average Humidity 61    
Maximum Humidity 89    
Minimum Humidity 32    
Precipitation  
Precipitation 0.00 in 0.03 in 1.60 in (1962)
Month to date precipitation 0.00 0.26  
Year to date precipitation 5.96 9.92  
Sea Level Pressure  
Sea Level Pressure 30.00 in    
Wind  
Wind Speed 7 mph (West)    
Max Wind Speed 23 mph    
Max Gust Speed 32 mph    
Visibility 10 miles    
Events      
T = Trace of Precipitation, MM = Missing Value Source: NWS Daily Summary

Daily Weather History Graph

Daily Weather History Graph

Search for Another Location

Airport or City:

Trip Planner

Search our weather history database for the weather conditions in past years. The results will help you decide how hot, cold, wet, or windy it might be!

Date:

Astronomy

Oct. 12, 2012 Rise Set
Actual Time 7:11 AM PDT 6:24 PM PDT
Civil Twilight 6:43 AM PDT 6:52 PM PDT
Nautical Twilight 6:11 AM PDT 7:24 PM PDT
Astronomical Twilight 5:39 AM PDT 7:56 PM PDT
Moon 3:58 AM PDT (10/12) 4:39 PM PDT (10/12)
Length of Visible Light 12h 09m
Length of Day
11h 13m
Waning Crescent, 10% of the Moon is Illuminated
Oct 12
Waning Crescent
Oct 15
New
Oct 21
First Quarter
Oct 29
Full
Nov 6
Last Quarter

Hourly Weather History & Observations

Time (PDT) Temp. Windchill Dew Point Humidity Pressure Visibility Wind Dir Wind Speed Gust Speed Precip Events Conditions
12:55 AM 50.0 °F - 34.0 °F 54% 29.83 in 10.0 mi SW 3.5 mph - N/A   Clear
1:55 AM 43.0 °F 41.3 °F 30.0 °F 60% 29.85 in 10.0 mi WNW 3.5 mph - N/A   Clear
2:55 AM 44.1 °F 41.5 °F 30.9 °F 60% 29.86 in 10.0 mi ESE 4.6 mph - N/A   Clear
3:55 AM 37.9 °F - 30.0 °F 73% 29.88 in 10.0 mi Calm Calm - N/A   Clear
4:55 AM 36.0 °F - 28.9 °F 76% 29.89 in 10.0 mi Calm Calm - N/A   Clear
5:55 AM 34.0 °F - 27.0 °F 75% 29.92 in 10.0 mi Calm Calm - N/A   Clear
6:55 AM 30.9 °F - 27.0 °F 85% 29.96 in 10.0 mi Calm Calm - N/A   Clear
7:55 AM 34.0 °F - 30.0 °F 85% 29.99 in 10.0 mi Calm Calm - N/A   Clear
8:55 AM 43.0 °F - 32.0 °F 65% 29.98 in 10.0 mi Calm Calm - N/A   Clear
9:55 AM 50.0 °F - 39.0 °F 66% 29.97 in 10.0 mi Calm Calm - N/A   Clear
10:55 AM 55.0 °F - 39.9 °F 57% 29.97 in 10.0 mi WNW 3.5 mph - N/A   Clear
11:55 AM 60.1 °F - 37.0 °F 42% 29.97 in 10.0 mi West 5.8 mph - N/A   Clear
12:55 PM 64.0 °F - 39.0 °F 40% 29.95 in 10.0 mi SW 8.1 mph - N/A   Clear
1:55 PM 66.0 °F - 39.0 °F 37% 29.95 in 10.0 mi WSW 11.5 mph - N/A   Clear
2:55 PM 66.0 °F - 36.0 °F 33% 29.95 in 10.0 mi West 17.3 mph 23.0 mph N/A   Clear
3:55 PM 63.0 °F - 37.0 °F 38% 29.99 in 10.0 mi WSW 17.3 mph - N/A   Clear
4:55 PM 59.0 °F - 39.9 °F 49% 30.02 in 10.0 mi West 17.3 mph 24.2 mph N/A   Clear
5:55 PM 53.1 °F - 39.9 °F 61% 30.07 in 10.0 mi West 18.4 mph 25.3 mph N/A   Clear
6:55 PM 50.0 °F - 39.0 °F 66% 30.12 in 10.0 mi West 15.0 mph 28.8 mph N/A   Clear
7:55 PM 48.0 °F - 39.0 °F 71% 30.15 in 10.0 mi West 11.5 mph - N/A   Clear
8:55 PM 46.9 °F - 39.0 °F 74% 30.17 in 10.0 mi West 9.2 mph - N/A   Clear
9:55 PM 46.9 °F - 39.0 °F 74% 30.16 in 10.0 mi West 8.1 mph - N/A   Clear
10:55 PM 46.0 °F 41.9 °F 39.0 °F 76% 30.17 in 10.0 mi West 8.1 mph - N/A   Clear
11:55 PM 46.0 °F 41.4 °F 39.9 °F 79% 30.17 in 10.0 mi West 9.2 mph - N/A   Clear